When you browse on this site, cookies collect data to enhance your experience and personalize the content and advertising you see.
Visit our Privacy Policy to learn more. By continuing to use the site, you agree to this use of cookies and data.
  • In United Kingdom
  • List of Countries
  • For 7 days
  • Water Temperature
  • Weather Map
  • Weather Widgets
  • user-avatar
    Login

    Hourly Weather Mayrhofen

    Today, 15 September, Sunday

    Time Temperature Precipitation Wind Pressure Humidity
    00:00 +10°C° 0 mm 1 mps 625 mmHg 94%
    01:00 +9°C° 0 mm 1 mps 625 mmHg 93%
    02:00 +9°C° 0 mm 1 mps 625 mmHg 93%
    03:00 +9°C° 0 mm 1 mps 625 mmHg 92%
    04:00 +9°C° 0 mm 1 mps 624 mmHg 92%
    05:00 +10°C° 0 mm 1 mps 625 mmHg 89%
    06:00 +11°C° 0 mm 1 mps 625 mmHg 87%
    07:00 +12°C° 0 mm 1 mps 626 mmHg 87%
    08:00 +15°C° 0 mm 1 mps 627 mmHg 75%
    09:00 +18°C° 0 mm 1 mps 627 mmHg 63%
    10:00 +20°C° 0 mm 1 mps 628 mmHg 51%
    11:00 +21°C° 0 mm 1 mps 628 mmHg 47%
    12:00 +22°C° 0 mm 1 mps 628 mmHg 43%
    13:00 +23°C° 0 mm 1 mps 628 mmHg 39%
    14:00 +23°C° 0 mm 1 mps 628 mmHg 42%
    15:00 +21°C° 0 mm 2 mps 627 mmHg 45%
    16:00 +21°C° 0 mm 2 mps 627 mmHg 48%
    17:00 +19°C° 0 mm 1 mps 626 mmHg 61%
    18:00 +15°C° 0 mm 1 mps 625 mmHg 75%
    19:00 +12°C° 0 mm 1 mps 623 mmHg 89%
    20:00 +10°C° 0 mm 0 mps 623 mmHg 91%
    21:00 +10°C° 0 mm 0 mps 623 mmHg 93%
    22:00 +9°C° 0 mm 0 mps 623 mmHg 94%
    23:00 +10°C° 0 mm 1 mps 623 mmHg 94%

    Tomorrow, 16 September, Monday

    Time Temperature Precipitation Wind Pressure Humidity
    00:00 +10°C° 0 mm 1 mps 623 mmHg 94%
    01:00 +10°C° 0 mm 1 mps 623 mmHg 94%
    02:00 +10°C° 0 mm 1 mps 622 mmHg 94%
    03:00 +9°C° 0 mm 1 mps 622 mmHg 94%
    04:00 +9°C° 0 mm 1 mps 621 mmHg 94%
    05:00 +10°C° 0 mm 1 mps 622 mmHg 92%
    06:00 +11°C° 0 mm 1 mps 622 mmHg 90%
    07:00 +12°C° 0 mm 1 mps 622 mmHg 88%
    08:00 +14°C° 0 mm 1 mps 623 mmHg 78%
    09:00 +16°C° 0 mm 1 mps 624 mmHg 67%
    10:00 +20°C° 0 mm 1 mps 625 mmHg 56%
    11:00 +21°C° 0 mm 1 mps 625 mmHg 52%
    12:00 +21°C° 0 mm 1 mps 625 mmHg 49%
    13:00 +22°C° 0 mm 1 mps 625 mmHg 46%
    14:00 +20°C° 0.1 mm 2 mps 624 mmHg 49%
    15:00 +20°C° 0.1 mm 2 mps 624 mmHg 52%
    16:00 +19°C° 0.1 mm 2 mps 623 mmHg 55%
    17:00 +17°C° 0.1 mm 2 mps 622 mmHg 67%
    18:00 +14°C° 0.1 mm 1 mps 621 mmHg 78%
    19:00 +12°C° 0.1 mm 1 mps 620 mmHg 89%
    20:00 +11°C° 0 mm 1 mps 620 mmHg 90%
    21:00 +11°C° 0 mm 1 mps 620 mmHg 91%
    22:00 +10°C° 0 mm 1 mps 620 mmHg 91%
    23:00 +10°C° 0 mm 1 mps 620 mmHg 92%

    Day after tomorrow, 17 September, Tuesday

    Time Temperature Precipitation Wind Pressure Humidity
    00:00 +10°C° 0 mm 1 mps 620 mmHg 92%
    01:00 +9°C° 0 mm 1 mps 620 mmHg 92%
    02:00 +9°C° 0 mm 1 mps 619 mmHg 92%
    03:00 +9°C° 0 mm 1 mps 619 mmHg 92%
    04:00 +9°C° 0 mm 1 mps 619 mmHg 92%
    05:00 +9°C° 0 mm 1 mps 619 mmHg 91%
    06:00 +10°C° 0 mm 1 mps 619 mmHg 91%
    07:00 +11°C° 0 mm 1 mps 619 mmHg 90%
    08:00 +13°C° 0.1 mm 1 mps 620 mmHg 83%
    09:00 +14°C° 0.1 mm 1 mps 621 mmHg 75%
    10:00 +16°C° 0.1 mm 1 mps 622 mmHg 68%
    11:00 +17°C° 0.2 mm 2 mps 622 mmHg 68%
    12:00 +17°C° 0.2 mm 2 mps 622 mmHg 69%
    13:00 +17°C° 0.2 mm 2 mps 621 mmHg 69%
    14:00 +16°C° 0.4 mm 2 mps 621 mmHg 73%
    15:00 +16°C° 0.4 mm 2 mps 621 mmHg 77%
    16:00 +15°C° 0.4 mm 2 mps 620 mmHg 80%
    17:00 +14°C° 0.1 mm 2 mps 620 mmHg 85%
    18:00 +12°C° 0.1 mm 2 mps 619 mmHg 90%
    19:00 +10°C° 0.1 mm 2 mps 619 mmHg 95%
    20:00 +9°C° 0 mm 2 mps 619 mmHg 96%
    21:00 +9°C° 0 mm 2 mps 619 mmHg 96%
    22:00 +9°C° 0 mm 2 mps 620 mmHg 97%
    23:00 +9°C° 0 mm 1 mps 619 mmHg 96%

    18 September, Wednesday

    Time Temperature Precipitation Wind Pressure Humidity
    00:00 +9°C° 0 mm 1 mps 619 mmHg 96%
    01:00 +9°C° 0 mm 1 mps 619 mmHg 96%
    02:00 +9°C° 0 mm 1 mps 619 mmHg 96%
    03:00 +8°C° 0 mm 1 mps 619 mmHg 96%
    04:00 +8°C° 0 mm 1 mps 619 mmHg 96%
    05:00 +8°C° 0 mm 1 mps 619 mmHg 96%
    06:00 +8°C° 0 mm 1 mps 619 mmHg 95%
    07:00 +8°C° 0 mm 1 mps 619 mmHg 94%
    08:00 +9°C° 0 mm 1 mps 620 mmHg 90%
    09:00 +10°C° 0 mm 1 mps 620 mmHg 87%
    10:00 +11°C° 0 mm 1 mps 621 mmHg 83%
    11:00 +12°C° 0 mm 2 mps 621 mmHg 77%
    12:00 +13°C° 0 mm 2 mps 621 mmHg 72%
    13:00 +14°C° 0 mm 2 mps 621 mmHg 66%
    14:00 +13°C° 0 mm 2 mps 621 mmHg 69%
    15:00 +13°C° 0 mm 2 mps 620 mmHg 72%
    16:00 +12°C° 0 mm 2 mps 620 mmHg 75%
    17:00 +10°C° 0 mm 2 mps 620 mmHg 80%
    18:00 +8°C° 0 mm 2 mps 619 mmHg 85%
    19:00 +7°C° 0 mm 2 mps 619 mmHg 89%
    20:00 +7°C° 0 mm 2 mps 619 mmHg 90%
    21:00 +6°C° 0 mm 2 mps 620 mmHg 90%
    22:00 +7°C° 0 mm 1 mps 620 mmHg 91%
    23:00 +6°C° 0 mm 1 mps 620 mmHg 91%

    19 September, Thursday

    Time Temperature Precipitation Wind Pressure Humidity
    00:00 +6°C° 0 mm 1 mps 619 mmHg 92%
    01:00 +5°C° 0 mm 1 mps 619 mmHg 92%
    02:00 +5°C° 0 mm 1 mps 619 mmHg 92%
    03:00 +4°C° 0 mm 1 mps 619 mmHg 92%
    04:00 +4°C° 0 mm 1 mps 618 mmHg 91%
    05:00 +4°C° 0 mm 1 mps 619 mmHg 91%
    06:00 +3°C° 0 mm 2 mps 619 mmHg 90%
    07:00 +4°C° 0 mm 2 mps 619 mmHg 89%
    08:00 +5°C° 0 mm 2 mps 620 mmHg 82%
    09:00 +6°C° 0 mm 2 mps 620 mmHg 75%
    10:00 +7°C° 0 mm 2 mps 621 mmHg 68%
    11:00 +8°C° 0 mm 2 mps 621 mmHg 63%
    12:00 +9°C° 0 mm 2 mps 621 mmHg 58%
    13:00 +10°C° 0 mm 3 mps 622 mmHg 53%
    14:00 +10°C° 0 mm 3 mps 621 mmHg 55%
    15:00 +9°C° 0 mm 3 mps 621 mmHg 56%
    16:00 +9°C° 0 mm 3 mps 621 mmHg 58%
    17:00 +5°C° 0 mm 3 mps 620 mmHg 68%
    18:00 +4°C° 0 mm 2 mps 620 mmHg 79%
    19:00 +2°C° 0 mm 2 mps 620 mmHg 89%
    20:00 +2°C° 0 mm 2 mps 620 mmHg 90%
    21:00 +1°C° 0 mm 2 mps 620 mmHg 91%
    22:00 +1°C° 0 mm 2 mps 621 mmHg 92%
    23:00 -1°C° 0 mm 2 mps 621 mmHg 91%

    20 September, Friday

    Time Temperature Precipitation Wind Pressure Humidity
    00:00 -1°C° 0 mm 2 mps 621 mmHg 90%
    01:00 -1°C° 0 mm 2 mps 621 mmHg 89%
    02:00 -2°C° 0 mm 2 mps 620 mmHg 87%
    03:00 -2°C° 0 mm 2 mps 620 mmHg 86%
    04:00 -1°C° 0 mm 1 mps 620 mmHg 84%
    05:00 0°C° 0 mm 1 mps 620 mmHg 76%
    06:00 +1°C° 0 mm 1 mps 621 mmHg 68%
    07:00 +1°C° 0 mm 1 mps 621 mmHg 60%
    08:00 +4°C° 0 mm 1 mps 622 mmHg 51%
    09:00 +5°C° 0 mm 2 mps 623 mmHg 42%
    10:00 +8°C° 0 mm 2 mps 624 mmHg 33%
    11:00 +9°C° 0 mm 2 mps 624 mmHg 32%
    12:00 +9°C° 0 mm 2 mps 624 mmHg 32%
    13:00 +10°C° 0 mm 2 mps 624 mmHg 32%
    14:00 +10°C° 0 mm 2 mps 624 mmHg 35%
    15:00 +10°C° 0 mm 2 mps 623 mmHg 38%
    16:00 +9°C° 0 mm 2 mps 623 mmHg 41%
    17:00 +7°C° 0 mm 2 mps 622 mmHg 54%
    18:00 +5°C° 0 mm 1 mps 621 mmHg 68%
    19:00 +2°C° 0 mm 1 mps 620 mmHg 81%
    20:00 +2°C° 0 mm 1 mps 621 mmHg 81%
    21:00 +1°C° 0 mm 1 mps 621 mmHg 81%
    22:00 +1°C° 0 mm 1 mps 621 mmHg 81%
    23:00 +2°C° 0 mm 1 mps 621 mmHg 83%
    Show more